Starlink 30416

operational
NORAD ID: 57847 Int'l Des: 2023-141 Owner: SPXS Country: US Constellation: starlink
LEOCIRCULAR

Starlink 30416について

説明を読み込み中...

リアルタイム位置

3D地球を読み込み中...

次回通過

高度履歴

Altitude vs Time

uPlot chart will show altitude changes over time

軌道要素

1 57847U 23141H 25302.90965626 .00001137 00000-0 50511-4 0 9995
2 57847 53.1601 171.6408 0001370 73.0232 287.0918 15.30190463120307
Epoch: Oct 29, 2025 • Age: 24 hours

現在のステータス

高度 480.9 km
速度 7.63 km/s
衛星直下点 53.23°N, 104.29°W
打ち上げ日 Sep 12, 2023
運用期間 2.1 years
タイプ internet

技術仕様

分類 Payload
質量 730.00 kg
乾燥質量 700.00 kg
総質量 730.00 kg
長さ 0.30 m
直径 4.10 m
スパン 29.00 m
形状 Box + pan
製造者 SPXS
バスタイプ Starlink V2M
フェーズステータス In Orbit
所有者/国 SPXS/US

大規模コンステレーション

Loading constellations...